Regional Weather Roundup
Issued by NWS

Home | Current Version | Previous Version | Text Only | Print | Product List | Glossary On
Versions: 1 2 3 4 5 6 7 8 9 10 11 12 13 14 15 16 17 18 19 20 21 22 23 24 25 26 27 28 29 30 31 32 33 34 35 36 37 38 39 40 41 42 43 44 45 46 47 48 49 50
000
ASUS43 KTOP 230608
RWRKS

WEATHER ROUNDUP FOR KANSAS
NATIONAL WEATHER SERVICE GOODLAND KS
100 AM CDT THU OCT 23 2014

NOTE:  "FAIR" INDICATES FEW OR NO CLOUDS BELOW 12,000 FEET WITH NO
SIGNIFICANT WEATHER AND/OR OBSTRUCTIONS TO VISIBILITY.

KSZ001>006-013>018-027>032-041>047-230700-
NORTHWEST KANSAS

CITY           SKY/WX    TMP DP  RH WIND       PRES   REMARKS
GOODLAND       CLEAR     49  45  86 S6        30.11R
6HR MIN TEMP:  47; 6HR MAX TEMP:  60;

HAYS           CLOUDY    61  54  77 SW5       30.07S
HILL CITY      CLEAR     49  48  97 CALM      30.05F
6HR MIN TEMP:  49; 6HR MAX TEMP:  71; 6HR PCP:  0.08;

RUSSELL        CLOUDY    61  57  87 S13       30.04F
6HR MIN TEMP:  59; 6HR MAX TEMP:  65;

$$

KSZ061>065-074>080-084>089-230700-
SOUTHWEST KANSAS

CITY           SKY/WX    TMP DP  RH WIND       PRES   REMARKS
DODGE CITY     CLOUDY    62  57  83 S10       30.07F
6HR MIN TEMP:  61; 6HR MAX TEMP:  63;

ELKHART          N/A     58  56  94 S2          N/A
GARDEN CITY    CLOUDY    61  58  90 S12       30.05F
6HR MIN TEMP:  60; 6HR MAX TEMP:  68;

GREAT BEND     CLOUDY    61  55  82 SW12      30.06F
LIBERAL        CLOUDY    64  57  77 SW12      30.09F
PRATT          MOCLDY    57  55  94 SW10G17   30.08S
$$

KSZ066>073-081>083-090>101-230700-
SOUTHEAST KANSAS

CITY           SKY/WX    TMP DP  RH WIND       PRES   REMARKS
CHANUTE        CLOUDY    62  59  90 SE7       30.11S
6HR MIN TEMP:  62; 6HR MAX TEMP:  68;

COFFEYVILLE    CLOUDY    62  57  83 CALM      30.11S
6HR MIN TEMP:  62; 6HR MAX TEMP:  69;

HUTCHINSON     MOCLDY    63  57  81 SW5       30.08S
6HR MIN TEMP:  62; 6HR MAX TEMP:  65; 6HR PCP: TRACE;

MEDICINE LODGE   N/A     59  57  93 CALM      30.10R
NEWTON         CLOUDY    61  54  77 S12       30.10S
PARSONS        CLOUDY    64  57  78 SW5       30.13S
6HR MIN TEMP:  63; 6HR MAX TEMP:  69;

WICHITA INTL   CLOUDY    64  57  78 S8        30.08F
6HR MIN TEMP:  64; 6HR MAX TEMP:  73; 6HR PCP: TRACE;

WICHITA JABRA  CLOUDY    64  56  75 S12       30.08F
6HR MIN TEMP:  64; 6HR MAX TEMP:  71; 6HR PCP: TRACE;

WICHITA MCCONL CLOUDY    63  60  91 S12       30.09F
WINFIELD       CLOUDY    61  60  97 S5        30.11F
6HR MIN TEMP:  61; 6HR MAX TEMP:  70; 6HR PCP:  0.03;

$$

KSZ007>012-019>026-033>040-048>060-102>105-230700-
NORTHEAST KANSAS

CITY           SKY/WX    TMP DP  RH WIND       PRES   REMARKS
CONCORDIA      CLOUDY    60  59  96 SE6       30.05F
6HR MIN TEMP:  60; 6HR MAX TEMP:  64; 6HR PCP:  0.16;

EMPORIA        RAIN      62  60  93 S12       30.09R FOG
6HR MIN TEMP:  62; 6HR MAX TEMP:  69; 6HR PCP:  0.01;

LAWRENCE       CLOUDY    61  54  77 S8        30.09S
6HR MIN TEMP:  61; 6HR MAX TEMP:  67;

MANHATTAN      RAIN      62  61  96 NE6       30.08R FOG
6HR MIN TEMP:  62; 6HR MAX TEMP:  73; 6HR PCP:  0.08;

MARYSVILLE     LGT RAIN  61  59  94 S6        30.06F
OLATHE IND     CLOUDY    61  52  72 S12       30.10F
6HR MIN TEMP:  61; 6HR MAX TEMP:  66;

OLATHE EXE     CLOUDY    60  52  74 S10       30.10F
6HR MIN TEMP:  59; 6HR MAX TEMP:  66;

SALINA         CLOUDY    64  58  80 S7        30.05F
6HR MIN TEMP:  63; 6HR MAX TEMP:  66; 6HR PCP:  0.05;

TOPEKA BILLARD RAIN      64  61  90 CALM      30.09R FOG
6HR MIN TEMP:  64; 6HR MAX TEMP:  71; 6HR PCP:  0.02;

TOPEKA FORBES  RAIN      63  60  90 S3        30.09R FOG
6HR MIN TEMP:  63; 6HR MAX TEMP:  70; 6HR PCP:  0.03;

$$



USA.gov is the U.S. government's official web portal to all federal, state and local government web resources and services.